TimeEDT,TemperatureF,Dew PointF,Humidity,Sea Level PressureIn,VisibilityMPH,Wind Direction,Wind SpeedMPH,Gust SpeedMPH,PrecipitationIn,Events,Conditions,WindDirDegrees,DateUTC
2:15 AM,64.4,62.6,94,29.82,10.0,SSW,5.8,-,N/A,,Clear,210,2012-10-19 06:15:00
2:35 AM,64.4,62.6,94,29.81,10.0,SSW,5.8,-,N/A,,Clear,210,2012-10-19 06:35:00
2:55 AM,64.4,62.6,94,29.79,10.0,SSW,4.6,-,N/A,,Clear,200,2012-10-19 06:55:00
3:15 AM,64.4,62.6,94,29.79,10.0,SSW,4.6,-,N/A,,Clear,200,2012-10-19 07:15:00
3:35 AM,64.4,62.6,94,29.78,10.0,South,5.8,-,N/A,,Clear,170,2012-10-19 07:35:00
3:55 AM,64.4,62.6,94,29.78,10.0,South,5.8,-,N/A,,Clear,190,2012-10-19 07:55:00
4:15 AM,64.4,62.6,94,29.78,7.0,SW,5.8,-,N/A,,Scattered Clouds,230,2012-10-19 08:15:00
4:35 AM,64.4,62.6,94,29.78,10.0,Calm,Calm,-,N/A,,Scattered Clouds,0,2012-10-19 08:35:00
4:55 AM,62.6,62.6,100,29.78,7.0,Calm,Calm,-,N/A,,Clear,0,2012-10-19 08:55:00
5:15 AM,62.6,60.8,94,29.78,5.0,Calm,Calm,-,N/A,,Clear,0,2012-10-19 09:15:00
5:35 AM,62.6,62.6,100,29.78,0.5,Calm,Calm,-,N/A,,Unknown,0,2012-10-19 09:35:00
5:55 AM,60.8,60.8,100,29.79,4.0,Calm,Calm,-,N/A,,Scattered Clouds,0,2012-10-19 09:55:00
6:15 AM,62.6,60.8,94,29.79,3.0,Calm,Calm,-,N/A,,Mostly Cloudy,0,2012-10-19 10:15:00
6:35 AM,60.8,60.8,100,29.79,0.5,Calm,Calm,-,N/A,,Overcast,0,2012-10-19 10:35:00
6:55 AM,60.8,60.8,100,29.80,7.0,Calm,Calm,-,N/A,,Overcast,0,2012-10-19 10:55:00
7:15 AM,62.6,62.6,100,29.81,7.0,Calm,Calm,-,N/A,,Overcast,0,2012-10-19 11:15:00
7:35 AM,62.6,62.6,100,29.81,5.0,Calm,Calm,-,N/A,,Overcast,0,2012-10-19 11:35:00
7:55 AM,62.6,62.6,100,29.81,3.0,Calm,Calm,-,N/A,,Overcast,0,2012-10-19 11:55:00
8:15 AM,64.4,64.4,100,29.80,4.0,Calm,Calm,-,N/A,,Overcast,0,2012-10-19 12:15:00
8:35 AM,64.4,64.4,100,29.80,4.0,ESE,4.6,-,N/A,,Overcast,110,2012-10-19 12:35:00
8:55 AM,64.4,62.6,94,29.81,4.0,SSE,3.5,-,N/A,,Overcast,160,2012-10-19 12:55:00
9:15 AM,64.4,64.4,100,29.81,5.0,SSW,3.5,-,N/A,,Overcast,210,2012-10-19 13:15:00
9:35 AM,64.4,64.4,100,29.82,5.0,Calm,Calm,-,N/A,,Overcast,0,2012-10-19 13:35:00
9:55 AM,66.2,64.4,94,29.82,7.0,SSW,5.8,-,N/A,,Mostly Cloudy,210,2012-10-19 13:55:00
10:15 AM,68.0,64.4,88,29.82,7.0,SW,4.6,-,N/A,,Mostly Cloudy,220,2012-10-19 14:15:00
10:35 AM,68.0,64.4,88,29.82,10.0,South,5.8,-,N/A,,Overcast,190,2012-10-19 14:35:00
10:55 AM,68.0,62.6,83,29.82,10.0,WSW,3.5,-,N/A,,Overcast,240,2012-10-19 14:55:00
11:15 AM,68.0,62.6,83,29.82,10.0,Calm,Calm,-,N/A,,Overcast,0,2012-10-19 15:15:00
11:35 AM,68.0,62.6,83,29.82,10.0,WSW,4.6,-,N/A,,Overcast,250,2012-10-19 15:35:00
11:55 AM,69.8,62.6,78,29.82,10.0,Calm,Calm,-,N/A,,Mostly Cloudy,0,2012-10-19 15:55:00
12:15 PM,69.8,62.6,78,29.82,10.0,SW,5.8,-,N/A,,Overcast,220,2012-10-19 16:15:00
12:35 PM,69.8,62.6,78,29.81,10.0,SW,4.6,-,N/A,,Mostly Cloudy,220,2012-10-19 16:35:00
12:55 PM,73.4,62.6,69,29.80,10.0,SSW,8.1,-,N/A,,Scattered Clouds,200,2012-10-19 16:55:00
1:15 PM,71.6,62.6,73,29.80,10.0,WSW,6.9,-,N/A,,Mostly Cloudy,240,2012-10-19 17:15:00
1:35 PM,73.4,60.8,65,29.79,10.0,SW,8.1,-,N/A,,Scattered Clouds,220,2012-10-19 17:35:00
1:55 PM,75.2,60.8,61,29.78,10.0,WSW,9.2,-,N/A,,Scattered Clouds,240,2012-10-19 17:55:00
2:15 PM,75.2,60.8,61,29.76,10.0,SW,10.4,-,N/A,,Clear,230,2012-10-19 18:15:00
2:35 PM,75.2,60.8,61,29.76,10.0,SW,6.9,10.4,N/A,,Clear,230,2012-10-19 18:35:00
2:55 PM,77.0,59.0,54,29.75,10.0,SW,12.7,20.7,N/A,,Scattered Clouds,220,2012-10-19 18:55:00
3:15 PM,77.0,59.0,54,29.75,10.0,SW,10.4,-,N/A,,Scattered Clouds,220,2012-10-19 19:15:00
3:35 PM,77.0,57.2,50,29.74,10.0,SW,10.4,17.3,N/A,,Clear,230,2012-10-19 19:35:00
3:55 PM,77.0,57.2,50,29.74,10.0,SW,10.4,-,N/A,,Clear,230,2012-10-19 19:55:00
4:15 PM,77.0,55.4,47,29.74,10.0,SSW,11.5,-,N/A,,Clear,210,2012-10-19 20:15:00
4:35 PM,77.0,55.4,47,29.74,10.0,SW,11.5,-,N/A,,Clear,220,2012-10-19 20:35:00
5:15 PM,75.2,55.4,50,29.73,10.0,SW,11.5,-,N/A,,Clear,220,2012-10-19 21:15:00
5:35 PM,73.4,53.6,50,29.73,10.0,SW,9.2,-,N/A,,Clear,220,2012-10-19 21:35:00
5:55 PM,73.4,53.6,50,29.73,10.0,SSW,6.9,-,N/A,,Clear,210,2012-10-19 21:55:00
6:15 PM,71.6,53.6,53,29.74,10.0,SSW,8.1,-,N/A,,Clear,210,2012-10-19 22:15:00
6:35 PM,69.8,51.8,53,29.74,10.0,SSW,6.9,-,N/A,,Clear,210,2012-10-19 22:35:00
6:55 PM,66.2,51.8,60,29.75,10.0,SSW,5.8,-,N/A,,Clear,210,2012-10-19 22:55:00
7:15 PM,64.4,53.6,68,29.75,10.0,SSW,4.6,-,N/A,,Clear,200,2012-10-19 23:15:00
7:35 PM,64.4,53.6,68,29.75,10.0,South,4.6,-,N/A,,Clear,190,2012-10-19 23:35:00
7:55 PM,62.6,51.8,68,29.76,10.0,SW,5.8,-,N/A,,Clear,220,2012-10-19 23:55:00
8:15 PM,60.8,51.8,72,29.77,10.0,SW,6.9,-,N/A,,Clear,230,2012-10-20 00:15:00
8:35 PM,62.6,51.8,68,29.78,10.0,SW,6.9,-,N/A,,Clear,230,2012-10-20 00:35:00
8:55 PM,62.6,50.0,63,29.78,10.0,SW,5.8,-,N/A,,Clear,230,2012-10-20 00:55:00
9:15 PM,60.8,50.0,68,29.79,10.0,SW,5.8,-,N/A,,Clear,230,2012-10-20 01:15:00
9:35 PM,60.8,48.2,63,29.80,10.0,WSW,5.8,-,N/A,,Clear,240,2012-10-20 01:35:00
9:55 PM,59.0,46.4,63,29.80,10.0,WSW,5.8,-,N/A,,Clear,250,2012-10-20 01:55:00
10:15 PM,60.8,44.6,55,29.80,10.0,WSW,4.6,-,N/A,,Clear,240,2012-10-20 02:15:00
10:35 PM,59.0,44.6,59,29.81,10.0,WSW,3.5,-,N/A,,Clear,250,2012-10-20 02:35:00
10:55 PM,55.4,44.6,67,29.81,10.0,West,3.5,-,N/A,,Clear,260,2012-10-20 02:55:00
11:15 PM,55.4,44.6,67,29.81,10.0,WSW,3.5,-,N/A,,Clear,250,2012-10-20 03:15:00
11:35 PM,55.4,42.8,63,29.81,10.0,WSW,4.6,-,N/A,,Clear,240,2012-10-20 03:35:00
11:55 PM,53.6,44.6,72,29.82,10.0,SW,4.6,-,N/A,,Clear,230,2012-10-20 03:55:00